Time,TemperatureF,DewpointF,PressureIn,WindDirection,WindDirectionDegrees,WindSpeedMPH,WindSpeedGustMPH,Humidity,HourlyPrecipIn,Conditions,Clouds,dailyrainin,SoftwareType,DateUTC
2013-06-09 00:00:00,63.9,29.2,29.76,SE,130,0.0,0.0,27,0.00,,,0.00,Wunderground v.1.15,2013-06-09 06:00:00,
2013-06-09 00:04:00,63.9,30.1,29.76,SE,130,0.0,0.0,28,0.00,,,0.00,Wunderground v.1.15,2013-06-09 06:04:00,
2013-06-09 00:06:00,63.9,29.2,29.76,SE,130,0.0,0.0,27,0.00,,,0.00,Wunderground v.1.15,2013-06-09 06:06:00,
2013-06-09 00:10:00,64.0,29.3,29.76,SE,130,0.0,0.0,27,0.00,,,0.00,Wunderground v.1.15,2013-06-09 06:10:00,
2013-06-09 00:12:00,64.0,30.2,29.76,SE,130,0.0,2.0,28,0.00,,,0.00,Wunderground v.1.15,2013-06-09 06:12:00,
2013-06-09 00:14:00,63.9,30.1,29.76,East,100,0.0,2.0,28,0.00,,,0.00,Wunderground v.1.15,2013-06-09 06:14:00,
2013-06-09 00:16:00,64.0,30.2,29.75,SSE,165,0.0,2.0,28,0.00,,,0.00,Wunderground v.1.15,2013-06-09 06:16:00,
2013-06-09 00:18:00,64.0,29.3,29.75,SSE,165,0.0,2.0,27,0.00,,,0.00,Wunderground v.1.15,2013-06-09 06:18:00,
2013-06-09 00:24:00,64.0,29.3,29.75,ESE,120,1.0,2.0,27,0.00,,,0.00,Wunderground v.1.15,2013-06-09 06:24:00,
2013-06-09 00:28:00,64.0,30.2,29.75,ESE,120,0.0,3.0,28,0.00,,,0.00,Wunderground v.1.15,2013-06-09 06:28:00,
2013-06-09 00:30:00,64.0,29.3,29.75,ESE,121,0.0,0.0,27,0.00,,,0.00,Wunderground v.1.15,2013-06-09 06:30:00,
2013-06-09 00:34:00,63.9,30.1,29.76,ESE,121,0.0,0.0,28,0.00,,,0.00,Wunderground v.1.15,2013-06-09 06:34:00,
2013-06-09 00:35:00,63.9,29.2,29.76,ESE,120,0.0,0.0,27,0.00,,,0.00,Wunderground v.1.15,2013-06-09 06:35:00,
2013-06-09 00:38:00,63.7,30.0,29.76,ESE,121,0.0,0.0,28,0.00,,,0.00,Wunderground v.1.15,2013-06-09 06:38:00,
2013-06-09 00:42:00,63.9,30.1,29.76,ESE,121,0.0,0.0,28,0.00,,,0.00,Wunderground v.1.15,2013-06-09 06:42:00,
2013-06-09 00:44:00,63.7,29.1,29.76,ESE,121,0.0,0.0,27,0.00,,,0.00,Wunderground v.1.15,2013-06-09 06:44:00,
2013-06-09 00:46:00,63.9,30.1,29.76,SE,124,0.0,0.0,28,0.00,,,0.00,Wunderground v.1.15,2013-06-09 06:46:00,
2013-06-09 00:48:00,63.9,30.1,29.76,SE,124,0.0,2.0,28,0.00,,,0.00,Wunderground v.1.15,2013-06-09 06:48:00,
2013-06-09 00:50:00,63.9,30.1,29.76,SE,124,0.0,0.0,28,0.00,,,0.00,Wunderground v.1.15,2013-06-09 06:50:00,
2013-06-09 00:52:00,63.9,30.1,29.76,SE,124,0.0,0.0,28,0.00,,,0.00,Wunderground v.1.15,2013-06-09 06:52:00,
2013-06-09 00:54:00,63.9,30.1,29.76,SE,124,0.0,0.0,28,0.00,,,0.00,Wunderground v.1.15,2013-06-09 06:54:00,
2013-06-09 00:56:00,63.9,30.1,29.76,ESE,123,0.0,0.0,28,0.00,,,0.00,Wunderground v.1.15,2013-06-09 06:56:00,
2013-06-09 00:58:00,63.7,29.1,29.76,SE,124,0.0,0.0,27,0.00,,,0.00,Wunderground v.1.15,2013-06-09 06:58:00,
2013-06-09 01:00:00,63.5,28.9,29.76,SE,124,0.0,0.0,27,0.00,,,0.00,Wunderground v.1.15,2013-06-09 07:00:00,
2013-06-09 01:02:00,63.4,29.7,29.77,SE,124,0.0,0.0,28,0.00,,,0.00,Wunderground v.1.15,2013-06-09 07:02:00,
2013-06-09 01:06:00,63.1,29.4,29.77,SE,124,0.0,0.0,28,0.00,,,0.00,Wunderground v.1.15,2013-06-09 07:06:00,
2013-06-09 01:08:00,62.9,29.3,29.77,ESE,123,0.0,0.0,28,0.00,,,0.00,Wunderground v.1.15,2013-06-09 07:08:00,
2013-06-09 01:12:00,62.7,29.1,29.77,SE,124,0.0,2.0,28,0.00,,,0.00,Wunderground v.1.15,2013-06-09 07:12:00,
2013-06-09 01:13:00,62.7,29.1,29.77,ESE,123,0.0,3.0,28,0.00,,,0.00,Wunderground v.1.15,2013-06-09 07:13:00,
2013-06-09 01:18:00,62.7,30.0,29.77,SE,126,0.0,3.0,29,0.00,,,0.00,Wunderground v.1.15,2013-06-09 07:18:00,
2013-06-09 01:19:00,62.6,29.9,29.77,SE,126,0.0,0.0,29,0.00,,,0.00,Wunderground v.1.15,2013-06-09 07:19:00,
2013-06-09 01:22:00,62.6,29.9,29.77,SE,126,0.0,0.0,29,0.00,,,0.00,Wunderground v.1.15,2013-06-09 07:22:00,
2013-06-09 01:24:00,62.6,29.9,29.77,SE,126,0.0,0.0,29,0.00,,,0.00,Wunderground v.1.15,2013-06-09 07:24:00,
2013-06-09 01:26:00,62.4,29.7,29.77,ESE,123,0.0,2.0,29,0.00,,,0.00,Wunderground v.1.15,2013-06-09 07:26:00,
2013-06-09 01:28:00,62.4,29.7,29.77,ESE,121,0.0,2.0,29,0.00,,,0.00,Wunderground v.1.15,2013-06-09 07:28:00,
2013-06-09 01:30:00,62.3,30.4,29.77,ESE,121,0.0,0.0,30,0.00,,,0.00,Wunderground v.1.15,2013-06-09 07:30:00,
2013-06-09 01:32:00,62.1,30.3,29.77,ESE,120,0.0,0.0,30,0.00,,,0.00,Wunderground v.1.15,2013-06-09 07:32:00,
2013-06-09 01:36:00,61.8,30.8,29.77,ESE,121,0.0,0.0,31,0.00,,,0.00,Wunderground v.1.15,2013-06-09 07:36:00,
2013-06-09 01:40:00,61.5,30.6,29.77,ESE,121,0.0,0.0,31,0.00,,,0.00,Wunderground v.1.15,2013-06-09 07:40:00,
2013-06-09 01:42:00,61.3,31.2,29.77,ESE,121,0.0,0.0,32,0.00,,,0.00,Wunderground v.1.15,2013-06-09 07:42:00,
2013-06-09 01:44:00,61.2,31.8,29.77,ESE,121,0.0,1.0,33,0.00,,,0.00,Wunderground v.1.15,2013-06-09 07:44:00,
2013-06-09 01:48:00,60.9,31.6,29.79,ESE,121,0.0,1.0,33,0.00,,,0.00,Wunderground v.1.15,2013-06-09 07:48:00,
2013-06-09 01:50:00,60.7,32.1,29.79,ESE,121,0.0,0.0,34,0.00,,,0.00,Wunderground v.1.15,2013-06-09 07:50:00,
2013-06-09 01:54:00,60.4,31.1,29.79,ESE,121,0.0,0.0,33,0.00,,,0.00,Wunderground v.1.15,2013-06-09 07:54:00,
2013-06-09 01:56:00,60.4,30.4,29.79,ESE,121,0.0,0.0,32,0.00,,,0.00,Wunderground v.1.15,2013-06-09 07:56:00,
2013-06-09 02:00:00,60.2,30.2,29.79,ESE,121,0.0,0.0,32,0.00,,,0.00,Wunderground v.1.15,2013-06-09 08:00:00,
2013-06-09 02:06:00,60.4,30.4,29.79,ESE,121,0.0,0.0,32,0.00,,,0.00,Wunderground v.1.15,2013-06-09 08:06:00,
2013-06-09 02:08:00,60.4,30.4,29.79,ESE,121,0.0,0.0,32,0.00,,,0.00,Wunderground v.1.15,2013-06-09 08:08:00,
2013-06-09 02:10:00,60.4,30.4,29.79,ESE,121,0.0,0.0,32,0.00,,,0.00,Wunderground v.1.15,2013-06-09 08:10:00,
2013-06-09 02:14:00,60.1,31.6,29.79,ESE,121,0.0,0.0,34,0.00,,,0.00,Wunderground v.1.15,2013-06-09 08:14:00,
2013-06-09 02:15:00,59.9,31.4,29.80,ESE,121,0.0,0.0,34,0.00,,,0.00,Wunderground v.1.15,2013-06-09 08:15:00,
2013-06-09 02:20:00,59.6,31.2,29.80,ESE,121,0.0,0.0,34,0.00,,,0.00,Wunderground v.1.15,2013-06-09 08:20:00,
2013-06-09 02:21:00,59.5,31.1,29.80,ESE,121,0.0,0.0,34,0.00,,,0.00,Wunderground v.1.15,2013-06-09 08:21:00,
2013-06-09 02:24:00,59.3,30.9,29.80,ESE,121,0.0,0.0,34,0.00,,,0.00,Wunderground v.1.15,2013-06-09 08:24:00,
2013-06-09 02:26:00,59.2,30.8,29.80,ESE,121,0.0,0.0,34,0.00,,,0.00,Wunderground v.1.15,2013-06-09 08:26:00,
2013-06-09 02:30:00,59.2,30.8,29.80,ESE,121,0.0,0.0,34,0.00,,,0.00,Wunderground v.1.15,2013-06-09 08:30:00,
2013-06-09 02:32:00,59.0,30.6,29.80,ESE,121,0.0,0.0,34,0.00,,,0.00,Wunderground v.1.15,2013-06-09 08:32:00,
2013-06-09 02:34:00,59.0,30.6,29.80,ESE,121,0.0,0.0,34,0.00,,,0.00,Wunderground v.1.15,2013-06-09 08:34:00,
2013-06-09 02:38:00,58.9,30.6,29.80,ESE,121,0.0,0.0,34,0.00,,,0.00,Wunderground v.1.15,2013-06-09 08:38:00,
2013-06-09 02:40:00,58.9,30.6,29.80,ESE,121,0.0,0.0,34,0.00,,,0.00,Wunderground v.1.15,2013-06-09 08:40:00,
2013-06-09 02:44:00,59.0,29.9,29.80,ESE,121,0.0,0.0,33,0.00,,,0.00,Wunderground v.1.15,2013-06-09 08:44:00,
2013-06-09 02:46:00,59.0,29.9,29.81,ESE,121,0.0,0.0,33,0.00,,,0.00,Wunderground v.1.15,2013-06-09 08:46:00,
2013-06-09 02:48:00,59.0,30.6,29.81,ESE,121,0.0,0.0,34,0.00,,,0.00,Wunderground v.1.15,2013-06-09 08:48:00,
2013-06-09 02:50:00,59.0,30.6,29.81,ESE,121,0.0,0.0,34,0.00,,,0.00,Wunderground v.1.15,2013-06-09 08:50:00,
2013-06-09 02:56:00,58.9,30.6,29.81,ESE,121,0.0,0.0,34,0.00,,,0.00,Wunderground v.1.15,2013-06-09 08:56:00,
2013-06-09 02:58:00,58.7,30.4,29.81,ESE,121,0.0,0.0,34,0.00,,,0.00,Wunderground v.1.15,2013-06-09 08:58:00,
2013-06-09 03:00:00,58.7,30.4,29.81,ESE,121,0.0,0.0,34,0.00,,,0.00,Wunderground v.1.15,2013-06-09 09:00:00,
2013-06-09 03:04:00,58.7,29.6,29.81,ESE,105,0.0,4.0,33,0.00,,,0.00,Wunderground v.1.15,2013-06-09 09:04:00,
2013-06-09 03:06:00,58.7,30.4,29.81,ESE,105,0.0,4.0,34,0.00,,,0.00,Wunderground v.1.15,2013-06-09 09:06:00,
2013-06-09 03:08:00,58.6,30.3,29.81,ESE,105,0.0,4.0,34,0.00,,,0.00,Wunderground v.1.15,2013-06-09 09:08:00,
2013-06-09 03:10:00,58.4,30.1,29.81,ESE,105,0.0,0.0,34,0.00,,,0.00,Wunderground v.1.15,2013-06-09 09:10:00,
2013-06-09 03:12:00,58.4,30.1,29.81,ESE,105,0.0,0.0,34,0.00,,,0.00,Wunderground v.1.15,2013-06-09 09:12:00,
2013-06-09 03:16:00,58.1,31.3,29.82,ESE,105,0.0,0.0,36,0.00,,,0.00,Wunderground v.1.15,2013-06-09 09:16:00,
2013-06-09 03:18:00,58.1,30.6,29.82,ESE,105,0.0,0.0,35,0.00,,,0.00,Wunderground v.1.15,2013-06-09 09:18:00,
2013-06-09 03:23:00,57.6,31.5,29.82,ESE,105,0.0,0.0,37,0.00,,,0.00,Wunderground v.1.15,2013-06-09 09:23:00,
2013-06-09 03:28:00,57.5,30.7,29.82,ESE,105,0.0,0.0,36,0.00,,,0.00,Wunderground v.1.15,2013-06-09 09:28:00,
2013-06-09 03:30:00,57.5,30.7,29.82,ESE,105,0.0,0.0,36,0.00,,,0.00,Wunderground v.1.15,2013-06-09 09:30:00,
2013-06-09 03:32:00,57.5,30.7,29.82,ESE,105,0.0,0.0,36,0.00,,,0.00,Wunderground v.1.15,2013-06-09 09:32:00,
2013-06-09 03:33:00,57.5,30.0,29.82,ESE,105,0.0,0.0,35,0.00,,,0.00,Wunderground v.1.15,2013-06-09 09:33:00,
2013-06-09 03:36:00,57.5,31.4,29.82,ESE,105,0.0,0.0,37,0.00,,,0.00,Wunderground v.1.15,2013-06-09 09:36:00,
2013-06-09 03:37:00,57.5,30.0,29.82,ESE,105,0.0,0.0,35,0.00,,,0.00,Wunderground v.1.15,2013-06-09 09:37:00,
2013-06-09 03:42:00,57.3,31.9,29.82,ESE,105,0.0,0.0,38,0.00,,,0.00,Wunderground v.1.15,2013-06-09 09:42:00,
2013-06-09 03:43:00,57.3,31.9,29.82,ESE,105,0.0,0.0,38,0.00,,,0.00,Wunderground v.1.15,2013-06-09 09:43:00,
2013-06-09 03:46:00,57.2,31.8,29.81,ESE,105,0.0,0.0,38,0.00,,,0.00,Wunderground v.1.15,2013-06-09 09:46:00,
2013-06-09 03:50:00,56.9,31.5,29.81,ESE,105,0.0,0.0,38,0.00,,,0.00,Wunderground v.1.15,2013-06-09 09:50:00,
2013-06-09 03:52:00,56.7,30.7,29.81,ESE,105,0.0,0.0,37,0.00,,,0.00,Wunderground v.1.15,2013-06-09 09:52:00,
2013-06-09 03:54:00,56.6,31.3,29.81,ESE,105,0.0,0.0,38,0.00,,,0.00,Wunderground v.1.15,2013-06-09 09:54:00,
2013-06-09 03:56:00,56.5,31.2,29.81,ESE,105,0.0,0.0,38,0.00,,,0.00,Wunderground v.1.15,2013-06-09 09:56:00,
2013-06-09 04:00:00,56.2,31.5,29.81,ESE,105,0.0,0.0,39,0.00,,,0.00,Wunderground v.1.15,2013-06-09 10:00:00,
2013-06-09 04:02:00,56.0,31.4,29.84,ESE,105,0.0,0.0,39,0.00,,,0.00,Wunderground v.1.15,2013-06-09 10:02:00,
2013-06-09 04:04:00,55.9,31.3,29.84,ESE,105,0.0,0.0,39,0.00,,,0.00,Wunderground v.1.15,2013-06-09 10:04:00,
2013-06-09 04:06:00,55.9,31.3,29.84,ESE,105,0.0,0.0,39,0.00,,,0.00,Wunderground v.1.15,2013-06-09 10:06:00,
2013-06-09 04:08:00,55.7,31.7,29.84,ESE,105,0.0,0.0,40,0.00,,,0.00,Wunderground v.1.15,2013-06-09 10:08:00,
2013-06-09 04:10:00,55.6,31.6,29.84,ESE,105,0.0,0.0,40,0.00,,,0.00,Wunderground v.1.15,2013-06-09 10:10:00,
2013-06-09 04:12:00,55.6,31.6,29.84,ESE,105,0.0,0.0,40,0.00,,,0.00,Wunderground v.1.15,2013-06-09 10:12:00,
2013-06-09 04:16:00,55.4,30.8,29.84,ESE,105,0.0,0.0,39,0.00,,,0.00,Wunderground v.1.15,2013-06-09 10:16:00,
2013-06-09 04:18:00,55.6,30.4,29.84,ESE,105,0.0,0.0,38,0.00,,,0.00,Wunderground v.1.15,2013-06-09 10:18:00,
2013-06-09 04:22:00,55.6,31.0,29.84,ESE,105,0.0,0.0,39,0.00,,,0.00,Wunderground v.1.15,2013-06-09 10:22:00,
2013-06-09 04:24:00,55.6,31.0,29.84,ESE,105,0.0,0.0,39,0.00,,,0.00,Wunderground v.1.15,2013-06-09 10:24:00,
2013-06-09 04:28:00,55.6,31.0,29.84,ESE,105,0.0,0.0,39,0.00,,,0.00,Wunderground v.1.15,2013-06-09 10:28:00,
2013-06-09 04:32:00,55.7,32.3,29.84,SE,137,0.0,2.0,41,0.00,,,0.00,Wunderground v.1.15,2013-06-09 10:32:00,
2013-06-09 04:34:00,55.7,31.7,29.84,SE,137,0.0,2.0,40,0.00,,,0.00,Wunderground v.1.15,2013-06-09 10:34:00,
2013-06-09 04:40:00,55.9,31.3,29.84,SE,138,0.0,0.0,39,0.00,,,0.00,Wunderground v.1.15,2013-06-09 10:40:00,
2013-06-09 04:41:00,55.9,31.3,29.84,SE,138,0.0,0.0,39,0.00,,,0.00,Wunderground v.1.15,2013-06-09 10:41:00,
2013-06-09 04:46:00,55.9,31.3,29.85,SE,138,0.0,0.0,39,0.00,,,0.00,Wunderground v.1.15,2013-06-09 10:46:00,
2013-06-09 04:47:00,55.7,31.1,29.85,SE,138,0.0,0.0,39,0.00,,,0.00,Wunderground v.1.15,2013-06-09 10:47:00,
2013-06-09 04:49:00,55.9,30.6,29.85,SE,140,0.0,4.0,38,0.00,,,0.00,Wunderground v.1.15,2013-06-09 10:49:00,
2013-06-09 04:52:00,56.0,31.4,29.85,SE,140,0.0,4.0,39,0.00,,,0.00,Wunderground v.1.15,2013-06-09 10:52:00,
2013-06-09 04:53:00,56.2,30.9,29.85,SE,140,0.0,4.0,38,0.00,,,0.00,Wunderground v.1.15,2013-06-09 10:53:00,
2013-06-09 04:56:00,56.2,30.9,29.85,SE,140,0.0,4.0,38,0.00,,,0.00,Wunderground v.1.15,2013-06-09 10:56:00,
2013-06-09 05:00:00,56.0,31.4,29.85,SE,140,0.0,0.0,39,0.00,,,0.00,Wunderground v.1.15,2013-06-09 11:00:00,
2013-06-09 05:02:00,56.0,30.1,29.86,SE,140,0.0,0.0,37,0.00,,,0.00,Wunderground v.1.15,2013-06-09 11:02:00,
2013-06-09 05:04:00,56.0,30.7,29.86,SE,140,0.0,0.0,38,0.00,,,0.00,Wunderground v.1.15,2013-06-09 11:04:00,
2013-06-09 05:08:00,56.2,30.9,29.86,SE,140,0.0,0.0,38,0.00,,,0.00,Wunderground v.1.15,2013-06-09 11:08:00,
2013-06-09 05:10:00,56.2,30.9,29.86,SE,140,0.0,2.0,38,0.00,,,0.00,Wunderground v.1.15,2013-06-09 11:10:00,
2013-06-09 05:12:00,56.2,30.9,29.86,SE,140,0.0,2.0,38,0.00,,,0.00,Wunderground v.1.15,2013-06-09 11:12:00,
2013-06-09 05:18:00,56.3,30.3,29.86,ESE,111,0.0,2.0,37,0.00,,,0.00,Wunderground v.1.15,2013-06-09 11:18:00,
2013-06-09 05:20:00,56.3,30.3,29.86,SE,128,0.0,0.0,37,0.00,,,0.00,Wunderground v.1.15,2013-06-09 11:20:00,
2013-06-09 05:24:00,56.5,30.5,29.86,ESE,111,0.0,4.0,37,0.00,,,0.00,Wunderground v.1.15,2013-06-09 11:24:00,
2013-06-09 05:26:00,56.6,29.9,29.86,ESE,117,1.0,4.0,36,0.00,,,0.00,Wunderground v.1.15,2013-06-09 11:26:00,
2013-06-09 05:28:00,56.7,30.7,29.86,ESE,117,1.0,4.0,37,0.00,,,0.00,Wunderground v.1.15,2013-06-09 11:28:00,
2013-06-09 05:30:00,56.7,30.7,29.86,ESE,115,1.0,1.0,37,0.00,,,0.00,Wunderground v.1.15,2013-06-09 11:30:00,
2013-06-09 05:34:00,56.7,30.7,29.87,ESE,115,1.0,1.0,37,0.00,,,0.00,Wunderground v.1.15,2013-06-09 11:34:00,
2013-06-09 05:36:00,56.6,30.6,29.87,ESE,115,0.0,1.0,37,0.00,,,0.00,Wunderground v.1.15,2013-06-09 11:36:00,
2013-06-09 05:38:00,56.6,29.9,29.87,SE,146,0.0,1.0,36,0.00,,,0.00,Wunderground v.1.15,2013-06-09 11:38:00,
2013-06-09 05:42:00,56.5,31.2,29.87,SE,146,0.0,0.0,38,0.00,,,0.00,Wunderground v.1.15,2013-06-09 11:42:00,
2013-06-09 05:44:00,56.5,30.5,29.87,SE,146,0.0,0.0,37,0.00,,,0.00,Wunderground v.1.15,2013-06-09 11:44:00,
2013-06-09 05:46:00,56.3,30.3,29.88,WNW,290,0.0,0.0,37,0.00,,,0.00,Wunderground v.1.15,2013-06-09 11:46:00,
2013-06-09 05:48:00,56.3,31.0,29.88,WNW,290,0.0,0.0,38,0.00,,,0.00,Wunderground v.1.15,2013-06-09 11:48:00,
2013-06-09 05:50:00,56.2,30.2,29.88,WNW,290,0.0,0.0,37,0.00,,,0.00,Wunderground v.1.15,2013-06-09 11:50:00,
2013-06-09 05:52:00,56.0,30.1,29.88,WNW,290,0.0,0.0,37,0.00,,,0.00,Wunderground v.1.15,2013-06-09 11:52:00,
2013-06-09 05:54:00,56.0,30.1,29.88,WNW,290,0.0,0.0,37,0.00,,,0.00,Wunderground v.1.15,2013-06-09 11:54:00,
2013-06-09 05:56:00,55.9,30.0,29.88,WNW,290,0.0,0.0,37,0.00,,,0.00,Wunderground v.1.15,2013-06-09 11:56:00,
2013-06-09 05:58:00,55.9,30.6,29.88,ESE,120,0.0,0.0,38,0.00,,,0.00,Wunderground v.1.15,2013-06-09 11:58:00,
2013-06-09 06:00:00,56.0,30.7,29.88,ESE,111,0.0,0.0,38,0.00,,,0.00,Wunderground v.1.15,2013-06-09 12:00:00,
2013-06-09 06:02:00,56.0,30.7,29.88,ESE,111,0.0,1.0,38,0.00,,,0.00,Wunderground v.1.15,2013-06-09 12:02:00,
2013-06-09 06:03:00,56.0,30.7,29.88,ESE,111,1.0,1.0,38,0.00,,,0.00,Wunderground v.1.15,2013-06-09 12:03:00,
2013-06-09 06:05:00,56.0,30.7,29.88,ESE,111,0.0,1.0,38,0.00,,,0.00,Wunderground v.1.15,2013-06-09 12:05:00,
2013-06-09 06:09:00,55.9,30.6,29.88,ESE,111,0.0,0.0,38,0.00,,,0.00,Wunderground v.1.15,2013-06-09 12:09:00,
2013-06-09 06:12:00,55.9,30.6,29.88,ESE,109,0.0,0.0,38,0.00,,,0.00,Wunderground v.1.15,2013-06-09 12:12:00,
2013-06-09 06:13:00,55.9,30.6,29.88,ESE,109,0.0,0.0,38,0.00,,,0.00,Wunderground v.1.15,2013-06-09 12:13:00,
2013-06-09 06:16:00,55.9,31.3,29.88,ESE,109,0.0,0.0,39,0.00,,,0.00,Wunderground v.1.15,2013-06-09 12:16:00,
2013-06-09 06:17:00,55.7,31.1,29.88,ESE,109,0.0,0.0,39,0.00,,,0.00,Wunderground v.1.15,2013-06-09 12:17:00,
2013-06-09 06:19:00,55.9,31.3,29.88,ESE,109,0.0,0.0,39,0.00,,,0.00,Wunderground v.1.15,2013-06-09 12:19:00,
2013-06-09 06:23:00,55.7,31.1,29.88,ESE,109,0.0,0.0,39,0.00,,,0.00,Wunderground v.1.15,2013-06-09 12:23:00,
2013-06-09 06:26:00,55.9,31.3,29.88,ESE,109,0.0,0.0,39,0.00,,,0.00,Wunderground v.1.15,2013-06-09 12:26:00,
2013-06-09 06:28:00,55.9,31.9,29.88,ESE,109,0.0,0.0,40,0.00,,,0.00,Wunderground v.1.15,2013-06-09 12:28:00,
2013-06-09 06:32:00,55.9,32.5,29.88,ESE,109,0.0,0.0,41,0.00,,,0.00,Wunderground v.1.15,2013-06-09 12:32:00,
2013-06-09 06:34:00,56.0,32.0,29.88,SE,124,0.0,4.0,40,0.00,,,0.00,Wunderground v.1.15,2013-06-09 12:34:00,
2013-06-09 06:36:00,56.2,32.8,29.88,SE,124,0.0,4.0,41,0.00,,,0.00,Wunderground v.1.15,2013-06-09 12:36:00,
2013-06-09 06:40:00,56.6,31.3,29.88,SE,124,0.0,2.0,38,0.00,,,0.00,Wunderground v.1.15,2013-06-09 12:40:00,
2013-06-09 06:42:00,56.7,31.4,29.88,SE,124,1.0,2.0,38,0.00,,,0.00,Wunderground v.1.15,2013-06-09 12:42:00,
2013-06-09 06:46:00,56.9,32.2,29.88,NW,321,1.0,2.0,39,0.00,,,0.00,Wunderground v.1.15,2013-06-09 12:46:00,
2013-06-09 06:48:00,56.9,32.2,29.88,NW,313,1.0,2.0,39,0.00,,,0.00,Wunderground v.1.15,2013-06-09 12:48:00,
2013-06-09 06:52:00,57.5,32.7,29.88,ESE,105,1.0,3.0,39,0.00,,,0.00,Wunderground v.1.15,2013-06-09 12:52:00,
2013-06-09 06:54:00,58.0,32.5,29.88,ESE,122,2.0,3.0,38,0.00,,,0.00,Wunderground v.1.15,2013-06-09 12:54:00,
2013-06-09 06:56:00,58.1,33.2,29.88,ESE,123,2.0,3.0,39,0.00,,,0.00,Wunderground v.1.15,2013-06-09 12:56:00,
2013-06-09 07:00:00,58.6,33.7,29.88,ESE,123,2.0,2.0,39,0.00,,,0.00,Wunderground v.1.15,2013-06-09 13:00:00,
2013-06-09 07:02:00,58.9,32.7,29.86,East,100,2.0,2.0,37,0.00,,,0.00,Wunderground v.1.15,2013-06-09 13:02:00,
2013-06-09 07:04:00,59.2,33.6,29.86,ESE,115,1.0,2.0,38,0.00,,,0.00,Wunderground v.1.15,2013-06-09 13:04:00,
2013-06-09 07:08:00,59.8,32.8,29.86,ESE,116,1.0,3.0,36,0.00,,,0.00,Wunderground v.1.15,2013-06-09 13:08:00,
2013-06-09 07:12:00,60.2,33.8,29.86,ESE,117,1.0,2.0,37,0.00,,,0.00,Wunderground v.1.15,2013-06-09 13:12:00,
2013-06-09 07:14:00,60.4,33.3,29.86,ESE,117,0.0,2.0,36,0.00,,,0.00,Wunderground v.1.15,2013-06-09 13:14:00,
2013-06-09 07:16:00,60.7,32.9,29.86,ESE,117,1.0,2.0,35,0.00,,,0.00,Wunderground v.1.15,2013-06-09 13:16:00,
2013-06-09 07:22:00,61.3,32.7,29.86,SE,134,1.0,3.0,34,0.00,,,0.00,Wunderground v.1.15,2013-06-09 13:22:00,
2013-06-09 07:28:00,61.6,32.2,29.86,SSE,159,2.0,5.0,33,0.00,,,0.00,Wunderground v.1.15,2013-06-09 13:28:00,
2013-06-09 07:34:00,62.0,33.3,29.87,SSE,167,2.0,3.0,34,0.00,,,0.00,Wunderground v.1.15,2013-06-09 13:34:00,
2013-06-09 07:40:00,62.4,35.1,29.87,SE,128,1.0,3.0,36,0.00,,,0.00,Wunderground v.1.15,2013-06-09 13:40:00,
2013-06-09 07:42:00,62.7,35.3,29.87,SE,128,1.0,3.0,36,0.00,,,0.00,Wunderground v.1.15,2013-06-09 13:42:00,
2013-06-09 07:46:00,63.2,35.1,29.85,SSE,163,1.0,3.0,35,0.00,,,0.00,Wunderground v.1.15,2013-06-09 13:46:00,
2013-06-09 07:48:00,63.5,34.6,29.85,South,169,1.0,3.0,34,0.00,,,0.00,Wunderground v.1.15,2013-06-09 13:48:00,
2013-06-09 07:53:00,64.5,34.7,29.85,SSE,161,1.0,6.0,33,0.00,,,0.00,Wunderground v.1.15,2013-06-09 13:53:00,
2013-06-09 07:55:00,65.0,34.4,29.85,SSE,161,1.0,6.0,32,0.00,,,0.00,Wunderground v.1.15,2013-06-09 13:55:00,
2013-06-09 08:02:00,65.8,34.3,29.85,South,190,1.0,7.0,31,0.00,,,0.00,Wunderground v.1.15,2013-06-09 14:02:00,
2013-06-09 08:04:00,66.0,35.3,29.85,SE,137,1.0,7.0,32,0.00,,,0.00,Wunderground v.1.15,2013-06-09 14:04:00,
2013-06-09 08:06:00,66.3,34.7,29.85,ESE,117,1.0,7.0,31,0.00,,,0.00,Wunderground v.1.15,2013-06-09 14:06:00,
2013-06-09 08:08:00,66.6,33.3,29.85,South,180,2.0,7.0,29,0.00,,,0.00,Wunderground v.1.15,2013-06-09 14:08:00,
2013-06-09 08:10:00,66.8,34.3,29.85,SSE,167,2.0,3.0,30,0.00,,,0.00,Wunderground v.1.15,2013-06-09 14:10:00,
2013-06-09 08:14:00,67.3,34.8,29.85,SSE,167,2.0,3.0,30,0.00,,,0.00,Wunderground v.1.15,2013-06-09 14:14:00,
2013-06-09 08:16:00,67.6,34.2,29.87,SSE,167,2.0,3.0,29,0.00,,,0.00,Wunderground v.1.15,2013-06-09 14:16:00,
2013-06-09 08:17:00,67.8,34.4,29.87,SSE,167,1.0,3.0,29,0.00,,,0.00,Wunderground v.1.15,2013-06-09 14:17:00,
2013-06-09 08:20:00,67.9,32.7,29.87,SSE,165,2.0,3.0,27,0.00,,,0.00,Wunderground v.1.15,2013-06-09 14:20:00,
2013-06-09 08:22:00,67.9,33.6,29.87,South,169,2.0,3.0,28,0.00,,,0.00,Wunderground v.1.15,2013-06-09 14:22:00,
2013-06-09 08:24:00,68.1,34.6,29.87,South,171,3.0,3.0,29,0.00,,,0.00,Wunderground v.1.15,2013-06-09 14:24:00,
2013-06-09 08:26:00,68.3,33.0,29.87,South,179,3.0,3.0,27,0.00,,,0.00,Wunderground v.1.15,2013-06-09 14:26:00,
2013-06-09 08:28:00,68.6,33.3,29.87,South,172,3.0,3.0,27,0.00,,,0.00,Wunderground v.1.15,2013-06-09 14:28:00,
2013-06-09 08:34:00,69.3,33.9,29.86,SE,144,2.0,2.0,27,0.00,,,0.00,Wunderground v.1.15,2013-06-09 14:34:00,
2013-06-09 08:35:00,69.4,33.9,29.86,SE,145,2.0,2.0,27,0.00,,,0.00,Wunderground v.1.15,2013-06-09 14:35:00,
2013-06-09 08:39:00,69.9,34.4,29.86,SE,146,2.0,2.0,27,0.00,,,0.00,Wunderground v.1.15,2013-06-09 14:39:00,
2013-06-09 08:42:00,70.3,34.7,29.86,SE,146,1.0,2.0,27,0.00,,,0.00,Wunderground v.1.15,2013-06-09 14:42:00,
2013-06-09 08:44:00,70.8,36.1,29.86,SE,146,1.0,2.0,28,0.00,,,0.00,Wunderground v.1.15,2013-06-09 14:44:00,
2013-06-09 08:50:00,72.0,33.2,29.85,SE,146,0.0,0.0,24,0.00,,,0.00,Wunderground v.1.15,2013-06-09 14:50:00,
2013-06-09 08:52:00,72.5,32.6,29.85,SE,146,0.0,0.0,23,0.00,,,0.00,Wunderground v.1.15,2013-06-09 14:52:00,
2013-06-09 08:54:00,72.8,32.8,29.85,SE,146,0.0,2.0,23,0.00,,,0.00,Wunderground v.1.15,2013-06-09 14:54:00,
2013-06-09 08:56:00,73.2,33.2,29.85,SE,146,1.0,2.0,23,0.00,,,0.00,Wunderground v.1.15,2013-06-09 14:56:00,
2013-06-09 09:00:00,73.9,32.6,29.85,SE,146,0.0,0.0,22,0.00,,,0.00,Wunderground v.1.15,2013-06-09 15:00:00,
2013-06-09 09:02:00,74.0,32.7,29.84,SE,146,0.0,0.0,22,0.00,,,0.00,Wunderground v.1.15,2013-06-09 15:02:00,
2013-06-09 09:08:00,75.3,34.9,29.84,SE,146,0.0,0.0,23,0.00,,,0.00,Wunderground v.1.15,2013-06-09 15:08:00,
2013-06-09 09:09:00,75.6,30.4,29.84,SE,146,0.0,0.0,19,0.00,,,0.00,Wunderground v.1.15,2013-06-09 15:09:00,
2013-06-09 09:14:00,76.0,30.7,29.84,SE,146,0.0,0.0,19,0.00,,,0.00,Wunderground v.1.15,2013-06-09 15:14:00,
2013-06-09 09:17:00,76.5,29.8,29.87,SE,146,0.0,0.0,18,0.00,,,0.00,Wunderground v.1.15,2013-06-09 15:17:00,
2013-06-09 09:20:00,76.7,31.3,29.87,SE,146,0.0,0.0,19,0.00,,,0.00,Wunderground v.1.15,2013-06-09 15:20:00,
2013-06-09 09:22:00,76.8,32.7,29.87,SE,146,0.0,1.0,20,0.00,,,0.00,Wunderground v.1.15,2013-06-09 15:22:00,
2013-06-09 09:26:00,77.4,31.9,29.87,SE,146,0.0,2.0,19,0.00,,,0.00,Wunderground v.1.15,2013-06-09 15:26:00,
2013-06-09 09:30:00,77.4,29.1,29.87,SE,146,0.0,0.0,17,0.00,,,0.00,Wunderground v.1.15,2013-06-09 15:30:00,
2013-06-09 09:32:00,77.4,31.9,29.87,SE,146,0.0,0.0,19,0.00,,,0.00,Wunderground v.1.15,2013-06-09 15:32:00,
2013-06-09 09:38:00,77.7,30.8,29.87,SE,146,0.0,1.0,18,0.00,,,0.00,Wunderground v.1.15,2013-06-09 15:38:00,
2013-06-09 09:40:00,77.9,29.5,29.87,SE,146,1.0,1.0,17,0.00,,,0.00,Wunderground v.1.15,2013-06-09 15:40:00,
2013-06-09 09:42:00,77.7,30.8,29.87,SE,146,1.0,1.0,18,0.00,,,0.00,Wunderground v.1.15,2013-06-09 15:42:00,
2013-06-09 09:44:00,77.9,32.3,29.87,SE,146,1.0,1.0,19,0.00,,,0.00,Wunderground v.1.15,2013-06-09 15:44:00,
2013-06-09 09:46:00,77.9,29.5,29.85,SE,146,1.0,1.0,17,0.00,,,0.00,Wunderground v.1.15,2013-06-09 15:46:00,
2013-06-09 09:50:00,78.1,26.7,29.85,SE,146,1.0,1.0,15,0.00,,,0.00,Wunderground v.1.15,2013-06-09 15:50:00,
2013-06-09 09:52:00,78.3,26.8,29.85,SE,146,0.0,1.0,15,0.00,,,0.00,Wunderground v.1.15,2013-06-09 15:52:00,
2013-06-09 09:54:00,78.6,27.1,29.85,SE,146,1.0,2.0,15,0.00,,,0.00,Wunderground v.1.15,2013-06-09 15:54:00,
2013-06-09 09:56:00,78.8,27.2,29.85,SE,146,1.0,2.0,15,0.00,,,0.00,Wunderground v.1.15,2013-06-09 15:56:00,
2013-06-09 09:58:00,78.8,28.8,29.85,SE,146,1.0,2.0,16,0.00,,,0.00,Wunderground v.1.15,2013-06-09 15:58:00,
2013-06-09 10:00:00,78.8,27.2,29.85,SE,146,1.0,3.0,15,0.00,,,0.00,Wunderground v.1.15,2013-06-09 16:00:00,
2013-06-09 10:02:00,78.6,28.6,29.85,SE,146,2.0,3.0,16,0.00,,,0.00,Wunderground v.1.15,2013-06-09 16:02:00,
2013-06-09 10:06:00,78.6,27.1,29.85,SE,146,1.0,3.0,15,0.00,,,0.00,Wunderground v.1.15,2013-06-09 16:06:00,
2013-06-09 10:08:00,78.5,27.0,29.85,SE,146,1.0,3.0,15,0.00,,,0.00,Wunderground v.1.15,2013-06-09 16:08:00,
2013-06-09 10:10:00,78.3,28.4,29.85,SE,146,1.0,1.0,16,0.00,,,0.00,Wunderground v.1.15,2013-06-09 16:10:00,
2013-06-09 10:14:00,78.6,28.6,29.85,SE,146,1.0,1.0,16,0.00,,,0.00,Wunderground v.1.15,2013-06-09 16:14:00,
2013-06-09 10:16:00,78.8,28.8,29.88,SE,146,1.0,3.0,16,0.00,,,0.00,Wunderground v.1.15,2013-06-09 16:16:00,
2013-06-09 10:18:00,79.0,27.4,29.88,SE,146,1.0,3.0,15,0.00,,,0.00,Wunderground v.1.15,2013-06-09 16:18:00,
2013-06-09 10:19:00,79.6,29.4,29.88,SE,146,1.0,1.0,16,0.00,,,0.00,Wunderground v.1.15,2013-06-09 16:19:00,
2013-06-09 10:21:00,79.9,28.1,29.88,SE,146,1.0,1.0,15,0.00,,,0.00,Wunderground v.1.15,2013-06-09 16:21:00,
2013-06-09 10:25:00,80.5,30.2,29.88,SE,146,1.0,1.0,16,0.00,,,0.00,Wunderground v.1.15,2013-06-09 16:25:00,
2013-06-09 10:31:00,80.9,32.0,29.86,SE,146,0.0,0.0,17,0.00,,,0.00,Wunderground v.1.15,2013-06-09 16:31:00,
2013-06-09 10:34:00,80.9,30.5,29.86,SE,146,0.0,0.0,16,0.00,,,0.00,Wunderground v.1.15,2013-06-09 16:34:00,
2013-06-09 10:35:00,80.7,28.7,29.86,SE,146,1.0,2.0,15,0.00,,,0.00,Wunderground v.1.15,2013-06-09 16:35:00,
2013-06-09 10:39:00,80.1,28.3,29.86,SE,146,1.0,1.0,15,0.00,,,0.00,Wunderground v.1.15,2013-06-09 16:39:00,
2013-06-09 10:41:00,80.1,28.3,29.86,SE,146,1.0,1.0,15,0.00,,,0.00,Wunderground v.1.15,2013-06-09 16:41:00,
2013-06-09 10:47:00,79.8,26.3,29.86,SE,146,1.0,3.0,14,0.00,,,0.00,Wunderground v.1.15,2013-06-09 16:47:00,
2013-06-09 10:50:00,79.9,26.4,29.86,SE,146,1.0,1.0,14,0.00,,,0.00,Wunderground v.1.15,2013-06-09 16:50:00,
2013-06-09 10:52:00,80.1,26.6,29.86,SE,146,1.0,1.0,14,0.00,,,0.00,Wunderground v.1.15,2013-06-09 16:52:00,
2013-06-09 10:58:00,80.3,26.7,29.86,SE,146,0.0,1.0,14,0.00,,,0.00,Wunderground v.1.15,2013-06-09 16:58:00,
2013-06-09 11:00:00,80.9,28.9,29.86,SE,146,0.0,0.0,15,0.00,,,0.00,Wunderground v.1.15,2013-06-09 17:00:00,
2013-06-09 11:02:00,81.2,30.7,29.86,SE,146,0.0,0.0,16,0.00,,,0.00,Wunderground v.1.15,2013-06-09 17:02:00,
2013-06-09 11:06:00,81.1,29.1,29.86,South,188,1.0,5.0,15,0.00,,,0.00,Wunderground v.1.15,2013-06-09 17:06:00,
2013-06-09 11:08:00,81.1,29.1,29.86,South,188,1.0,5.0,15,0.00,,,0.00,Wunderground v.1.15,2013-06-09 17:08:00,
2013-06-09 11:10:00,81.1,25.6,29.86,South,189,2.0,2.0,13,0.00,,,0.00,Wunderground v.1.15,2013-06-09 17:10:00,
2013-06-09 11:16:00,80.9,28.9,29.86,South,189,1.0,2.0,15,0.00,,,0.00,Wunderground v.1.15,2013-06-09 17:16:00,
2013-06-09 11:18:00,81.1,27.4,29.86,South,189,1.0,2.0,14,0.00,,,0.00,Wunderground v.1.15,2013-06-09 17:18:00,
2013-06-09 11:20:00,81.1,27.4,29.86,South,189,1.0,1.0,14,0.00,,,0.00,Wunderground v.1.15,2013-06-09 17:20:00,
2013-06-09 11:22:00,81.2,29.1,29.86,South,189,1.0,1.0,15,0.00,,,0.00,Wunderground v.1.15,2013-06-09 17:22:00,
2013-06-09 11:26:00,81.8,26.1,29.86,South,189,1.0,1.0,13,0.00,,,0.00,Wunderground v.1.15,2013-06-09 17:26:00,
2013-06-09 11:32:00,82.4,28.4,29.86,SSW,192,1.0,4.0,14,0.00,,,0.00,Wunderground v.1.15,2013-06-09 17:32:00,
2013-06-09 11:34:00,82.2,26.4,29.86,NW,319,2.0,4.0,13,0.00,,,0.00,Wunderground v.1.15,2013-06-09 17:34:00,
2013-06-09 11:36:00,81.6,26.0,29.86,North,5,2.0,4.0,13,0.00,,,0.00,Wunderground v.1.15,2013-06-09 17:36:00,
2013-06-09 11:40:00,81.4,27.6,29.86,North,32767,1.0,1.0,14,0.00,,,0.00,Wunderground v.1.15,2013-06-09 17:40:00,
2013-06-09 11:42:00,81.6,29.4,29.86,NW,311,2.0,4.0,15,0.00,,,0.00,Wunderground v.1.15,2013-06-09 17:42:00,
2013-06-09 11:44:00,81.6,26.0,29.86,WNW,302,1.0,5.0,13,0.00,,,0.00,Wunderground v.1.15,2013-06-09 17:44:00,
2013-06-09 11:48:00,81.4,25.8,29.86,NW,305,2.0,5.0,13,0.00,,,0.00,Wunderground v.1.15,2013-06-09 17:48:00,
2013-06-09 11:53:00,81.6,32.5,29.86,NW,306,1.0,3.0,17,0.00,,,0.00,Wunderground v.1.15,2013-06-09 17:53:00,
2013-06-09 11:55:00,82.2,28.2,29.86,NW,305,1.0,3.0,14,0.00,,,0.00,Wunderground v.1.15,2013-06-09 17:55:00,
2013-06-09 11:58:00,82.6,28.6,29.86,NW,305,1.0,3.0,14,0.00,,,0.00,Wunderground v.1.15,2013-06-09 17:58:00,
2013-06-09 12:00:00,83.2,29.0,29.86,WSW,256,1.0,4.0,14,0.00,,,0.00,Wunderground v.1.15,2013-06-09 18:00:00,
2013-06-09 12:02:00,83.2,29.0,29.84,WSW,256,0.0,4.0,14,0.00,,,0.00,Wunderground v.1.15,2013-06-09 18:02:00,
2013-06-09 12:04:00,83.0,25.1,29.84,NNW,344,1.0,4.0,12,0.00,,,0.00,Wunderground v.1.15,2013-06-09 18:04:00,
2013-06-09 12:08:00,82.4,26.6,29.84,North,349,1.0,4.0,13,0.00,,,0.00,Wunderground v.1.15,2013-06-09 18:08:00,
2013-06-09 12:10:00,82.4,24.7,29.84,North,349,1.0,1.0,12,0.00,,,0.00,Wunderground v.1.15,2013-06-09 18:10:00,
2013-06-09 12:12:00,82.6,24.8,29.84,NNW,348,1.0,1.0,12,0.00,,,0.00,Wunderground v.1.15,2013-06-09 18:12:00,
2013-06-09 12:16:00,82.8,26.9,29.84,SSE,157,1.0,5.0,13,0.00,,,0.00,Wunderground v.1.15,2013-06-09 18:16:00,
2013-06-09 12:18:00,82.8,26.9,29.84,NE,36,1.0,5.0,13,0.00,,,0.00,Wunderground v.1.15,2013-06-09 18:18:00,
2013-06-09 12:19:00,82.6,26.7,29.84,NNE,12,1.0,1.0,13,0.00,,,0.00,Wunderground v.1.15,2013-06-09 18:19:00,
2013-06-09 12:22:00,82.2,24.5,29.84,NNE,28,1.0,1.0,12,0.00,,,0.00,Wunderground v.1.15,2013-06-09 18:22:00,
2013-06-09 12:23:00,82.0,24.4,29.84,NNE,28,1.0,1.0,12,0.00,,,0.00,Wunderground v.1.15,2013-06-09 18:23:00,
2013-06-09 12:25:00,82.0,24.4,29.84,NNE,28,1.0,1.0,12,0.00,,,0.00,Wunderground v.1.15,2013-06-09 18:25:00,
2013-06-09 12:28:00,82.0,26.3,29.84,NE,35,1.0,1.0,13,0.00,,,0.00,Wunderground v.1.15,2013-06-09 18:28:00,
2013-06-09 12:30:00,81.8,24.2,29.84,ENE,63,0.0,0.0,12,0.00,,,0.00,Wunderground v.1.15,2013-06-09 18:30:00,
2013-06-09 12:32:00,81.8,24.2,29.85,ENE,74,0.0,0.0,12,0.00,,,0.00,Wunderground v.1.15,2013-06-09 18:32:00,
2013-06-09 12:34:00,82.2,26.4,29.85,ENE,74,0.0,1.0,13,0.00,,,0.00,Wunderground v.1.15,2013-06-09 18:34:00,
2013-06-09 12:36:00,82.4,26.6,29.85,ENE,74,0.0,1.0,13,0.00,,,0.00,Wunderground v.1.15,2013-06-09 18:36:00,
2013-06-09 12:40:00,83.6,27.5,29.85,ENE,59,0.0,0.0,13,0.00,,,0.00,Wunderground v.1.15,2013-06-09 18:40:00,
2013-06-09 12:41:00,84.1,31.4,29.85,NW,315,0.0,0.0,15,0.00,,,0.00,Wunderground v.1.15,2013-06-09 18:41:00,
2013-06-09 12:45:00,83.8,25.7,29.84,NW,317,1.0,3.0,12,0.00,,,0.00,Wunderground v.1.15,2013-06-09 18:45:00,
2013-06-09 12:51:00,83.6,25.6,29.84,NW,317,2.0,2.0,12,0.00,,,0.00,Wunderground v.1.15,2013-06-09 18:51:00,
2013-06-09 12:53:00,83.8,25.7,29.84,NW,317,1.0,2.0,12,0.00,,,0.00,Wunderground v.1.15,2013-06-09 18:53:00,
2013-06-09 12:58:00,84.1,27.9,29.84,NW,317,1.0,2.0,13,0.00,,,0.00,Wunderground v.1.15,2013-06-09 18:58:00,
2013-06-09 13:00:00,84.1,27.9,29.84,NW,317,1.0,1.0,13,0.00,,,0.00,Wunderground v.1.15,2013-06-09 19:00:00,
2013-06-09 13:01:00,84.3,26.1,29.84,NW,317,1.0,1.0,12,0.00,,,0.00,Wunderground v.1.15,2013-06-09 19:01:00,
2013-06-09 13:06:00,84.7,24.4,29.84,NNE,26,2.0,4.0,11,0.00,,,0.00,Wunderground v.1.15,2013-06-09 19:06:00,
2013-06-09 13:08:00,84.5,26.3,29.84,NNE,24,2.0,4.0,12,0.00,,,0.00,Wunderground v.1.15,2013-06-09 19:08:00,
2013-06-09 13:10:00,84.5,26.3,29.84,NW,314,1.0,1.0,12,0.00,,,0.00,Wunderground v.1.15,2013-06-09 19:10:00,
2013-06-09 13:14:00,85.1,28.7,29.84,NW,313,1.0,1.0,13,0.00,,,0.00,Wunderground v.1.15,2013-06-09 19:14:00,
2013-06-09 13:16:00,85.5,25.0,29.83,NE,51,1.0,1.0,11,0.00,,,0.00,Wunderground v.1.15,2013-06-09 19:16:00,
2013-06-09 13:18:00,85.3,22.5,29.83,NE,43,1.0,1.0,10,0.00,,,0.00,Wunderground v.1.15,2013-06-09 19:18:00,
2013-06-09 13:20:00,85.3,24.8,29.83,NE,43,1.0,1.0,11,0.00,,,0.00,Wunderground v.1.15,2013-06-09 19:20:00,
2013-06-09 13:22:00,85.1,24.7,29.83,ESE,109,1.0,3.0,11,0.00,,,0.00,Wunderground v.1.15,2013-06-09 19:22:00,
2013-06-09 13:26:00,84.9,24.5,29.83,SE,127,1.0,3.0,11,0.00,,,0.00,Wunderground v.1.15,2013-06-09 19:26:00,
2013-06-09 13:30:00,85.7,29.2,29.83,NNE,19,0.0,5.0,13,0.00,,,0.00,Wunderground v.1.15,2013-06-09 19:30:00,
2013-06-09 13:32:00,85.9,27.4,29.82,North,355,1.0,5.0,12,0.00,,,0.00,Wunderground v.1.15,2013-06-09 19:32:00,
2013-06-09 13:34:00,86.1,23.1,29.82,NW,313,1.0,5.0,10,0.00,,,0.00,Wunderground v.1.15,2013-06-09 19:34:00,
2013-06-09 13:36:00,85.9,25.3,29.82,NW,315,1.0,5.0,11,0.00,,,0.00,Wunderground v.1.15,2013-06-09 19:36:00,
2013-06-09 13:40:00,85.3,26.9,29.82,SSW,211,2.0,2.0,12,0.00,,,0.00,Wunderground v.1.15,2013-06-09 19:40:00,
2013-06-09 13:42:00,85.5,25.0,29.82,ENE,75,1.0,2.0,11,0.00,,,0.00,Wunderground v.1.15,2013-06-09 19:42:00,
2013-06-09 13:46:00,86.1,25.4,29.82,NE,34,1.0,3.0,11,0.00,,,0.00,Wunderground v.1.15,2013-06-09 19:46:00,
2013-06-09 13:48:00,86.3,27.7,29.82,NE,39,0.0,3.0,12,0.00,,,0.00,Wunderground v.1.15,2013-06-09 19:48:00,
2013-06-09 13:50:00,87.0,23.8,29.82,NE,39,0.0,1.0,10,0.00,,,0.00,Wunderground v.1.15,2013-06-09 19:50:00,
2013-06-09 13:56:00,88.4,27.2,29.82,NNE,23,0.0,1.0,11,0.00,,,0.00,Wunderground v.1.15,2013-06-09 19:56:00,
2013-06-09 13:58:00,88.6,29.5,29.82,NNW,332,0.0,1.0,12,0.00,,,0.00,Wunderground v.1.15,2013-06-09 19:58:00,
2013-06-09 14:00:00,88.4,24.9,29.82,NNW,342,1.0,4.0,10,0.00,,,0.00,Wunderground v.1.15,2013-06-09 20:00:00,
2013-06-09 14:02:00,88.0,24.6,29.81,NNW,342,2.0,4.0,10,0.00,,,0.00,Wunderground v.1.15,2013-06-09 20:02:00,
2013-06-09 14:04:00,87.4,24.1,29.81,NE,34,2.0,4.0,10,0.00,,,0.00,Wunderground v.1.15,2013-06-09 20:04:00,
2013-06-09 14:06:00,87.0,23.8,29.81,NE,53,2.0,4.0,10,0.00,,,0.00,Wunderground v.1.15,2013-06-09 20:06:00,
2013-06-09 14:08:00,86.5,25.7,29.81,NE,44,2.0,4.0,11,0.00,,,0.00,Wunderground v.1.15,2013-06-09 20:08:00,
2013-06-09 14:10:00,86.3,23.3,29.81,NE,43,1.0,1.0,10,0.00,,,0.00,Wunderground v.1.15,2013-06-09 20:10:00,
2013-06-09 14:14:00,87.0,26.1,29.81,NE,44,0.0,4.0,11,0.00,,,0.00,Wunderground v.1.15,2013-06-09 20:14:00,
2013-06-09 14:16:00,87.0,28.2,29.82,NNE,27,1.0,4.0,12,0.00,,,0.00,Wunderground v.1.15,2013-06-09 20:16:00,
2013-06-09 14:20:00,86.7,23.6,29.82,NNE,19,1.0,1.0,10,0.00,,,0.00,Wunderground v.1.15,2013-06-09 20:20:00,
2013-06-09 14:22:00,86.7,25.9,29.82,North,5,2.0,9.0,11,0.00,,,0.00,Wunderground v.1.15,2013-06-09 20:22:00,
2013-06-09 14:24:00,86.7,25.9,29.82,NW,313,2.0,9.0,11,0.00,,,0.00,Wunderground v.1.15,2013-06-09 20:24:00,
2013-06-09 14:28:00,87.2,26.3,29.82,NW,321,1.0,9.0,11,0.00,,,0.00,Wunderground v.1.15,2013-06-09 20:28:00,
2013-06-09 14:32:00,87.8,28.9,29.81,North,5,1.0,3.0,12,0.00,,,0.00,Wunderground v.1.15,2013-06-09 20:32:00,
2013-06-09 14:34:00,87.8,28.9,29.81,NNW,348,1.0,3.0,12,0.00,,,0.00,Wunderground v.1.15,2013-06-09 20:34:00,
2013-06-09 14:36:00,87.8,26.7,29.81,North,5,1.0,3.0,11,0.00,,,0.00,Wunderground v.1.15,2013-06-09 20:36:00,
2013-06-09 14:38:00,87.8,26.7,29.81,NE,38,1.0,3.0,11,0.00,,,0.00,Wunderground v.1.15,2013-06-09 20:38:00,
2013-06-09 14:44:00,87.6,24.3,29.81,North,355,2.0,3.0,10,0.00,,,0.00,Wunderground v.1.15,2013-06-09 20:44:00,
2013-06-09 14:48:00,87.6,24.3,29.80,NW,321,2.0,5.0,10,0.00,,,0.00,Wunderground v.1.15,2013-06-09 20:48:00,
2013-06-09 14:50:00,87.6,24.3,29.80,NNE,28,2.0,2.0,10,0.00,,,0.00,Wunderground v.1.15,2013-06-09 20:50:00,
2013-06-09 14:56:00,87.8,28.9,29.80,NW,321,1.0,2.0,12,0.00,,,0.00,Wunderground v.1.15,2013-06-09 20:56:00,
2013-06-09 14:58:00,88.0,24.6,29.80,NW,325,1.0,2.0,10,0.00,,,0.00,Wunderground v.1.15,2013-06-09 20:58:00,
2013-06-09 15:00:00,88.2,24.7,29.80,WNW,302,1.0,1.0,10,0.00,,,0.00,Wunderground v.1.15,2013-06-09 21:00:00,
2013-06-09 15:02:00,88.4,27.2,29.80,SW,223,1.0,3.0,11,0.00,,,0.00,Wunderground v.1.15,2013-06-09 21:02:00,
2013-06-09 15:08:00,88.0,26.9,29.80,North,5,2.0,5.0,11,0.00,,,0.00,Wunderground v.1.15,2013-06-09 21:08:00,
2013-06-09 15:10:00,88.0,22.1,29.80,NW,319,2.0,2.0,9,0.00,,,0.00,Wunderground v.1.15,2013-06-09 21:10:00,
2013-06-09 15:12:00,88.2,24.7,29.80,ENE,63,2.0,2.0,10,0.00,,,0.00,Wunderground v.1.15,2013-06-09 21:12:00,
2013-06-09 15:14:00,88.4,24.9,29.80,NE,38,1.0,2.0,10,0.00,,,0.00,Wunderground v.1.15,2013-06-09 21:14:00,
2013-06-09 15:18:00,88.6,25.0,29.81,North,349,1.0,3.0,10,0.00,,,0.00,Wunderground v.1.15,2013-06-09 21:18:00,
2013-06-09 15:20:00,88.8,25.2,29.81,NNW,340,1.0,3.0,10,0.00,,,0.00,Wunderground v.1.15,2013-06-09 21:20:00,
2013-06-09 15:21:00,88.6,22.5,29.81,NNW,336,2.0,3.0,9,0.00,,,0.00,Wunderground v.1.15,2013-06-09 21:21:00,
2013-06-09 15:24:00,88.4,24.9,29.81,NE,44,2.0,3.0,10,0.00,,,0.00,Wunderground v.1.15,2013-06-09 21:24:00,
2013-06-09 15:25:00,88.8,25.2,29.81,WNW,303,2.0,3.0,10,0.00,,,0.00,Wunderground v.1.15,2013-06-09 21:25:00,
2013-06-09 15:30:00,89.0,22.8,29.81,NNW,331,2.0,2.0,9,0.00,,,0.00,Wunderground v.1.15,2013-06-09 21:30:00,
2013-06-09 15:32:00,89.0,22.8,29.80,NNW,331,1.0,2.0,9,0.00,,,0.00,Wunderground v.1.15,2013-06-09 21:32:00,
2013-06-09 15:34:00,89.3,23.0,29.80,NNW,331,1.0,2.0,9,0.00,,,0.00,Wunderground v.1.15,2013-06-09 21:34:00,
2013-06-09 15:36:00,89.5,23.2,29.80,NE,36,1.0,2.0,9,0.00,,,0.00,Wunderground v.1.15,2013-06-09 21:36:00,
2013-06-09 15:42:00,89.3,23.0,29.80,NNW,328,1.0,3.0,9,0.00,,,0.00,Wunderground v.1.15,2013-06-09 21:42:00,
2013-06-09 15:46:00,89.3,23.0,29.80,NNW,328,1.0,3.0,9,0.00,,,0.00,Wunderground v.1.15,2013-06-09 21:46:00,
2013-06-09 15:52:00,89.7,23.3,29.80,North,355,1.0,1.0,9,0.00,,,0.00,Wunderground v.1.15,2013-06-09 21:52:00,
2013-06-09 15:54:00,89.7,23.3,29.80,NNW,333,1.0,1.0,9,0.00,,,0.00,Wunderground v.1.15,2013-06-09 21:54:00,
2013-06-09 15:56:00,89.7,23.3,29.80,NNW,331,1.0,1.0,9,0.00,,,0.00,Wunderground v.1.15,2013-06-09 21:56:00,
2013-06-09 15:58:00,89.7,23.3,29.80,NNW,331,1.0,1.0,9,0.00,,,0.00,Wunderground v.1.15,2013-06-09 21:58:00,
2013-06-09 16:00:00,89.5,20.4,29.80,ENE,76,1.0,1.0,8,0.00,,,0.00,Wunderground v.1.15,2013-06-09 22:00:00,
2013-06-09 16:02:00,89.7,23.3,29.78,ENE,76,0.0,1.0,9,0.00,,,0.00,Wunderground v.1.15,2013-06-09 22:02:00,
2013-06-09 16:04:00,89.9,23.5,29.78,NE,34,0.0,1.0,9,0.00,,,0.00,Wunderground v.1.15,2013-06-09 22:04:00,
2013-06-09 16:08:00,90.1,23.6,29.78,NW,313,1.0,6.0,9,0.00,,,0.00,Wunderground v.1.15,2013-06-09 22:08:00,
2013-06-09 16:10:00,90.1,23.6,29.78,NW,313,1.0,3.0,9,0.00,,,0.00,Wunderground v.1.15,2013-06-09 22:10:00,
2013-06-09 16:12:00,90.1,26.2,29.78,NW,314,1.0,3.0,10,0.00,,,0.00,Wunderground v.1.15,2013-06-09 22:12:00,
2013-06-09 16:14:00,90.1,20.9,29.78,NW,315,1.0,3.0,8,0.00,,,0.00,Wunderground v.1.15,2013-06-09 22:14:00,
2013-06-09 16:17:00,89.9,26.0,29.77,NNE,26,1.0,3.0,10,0.00,,,0.00,Wunderground v.1.15,2013-06-09 22:17:00,
2013-06-09 16:20:00,90.1,23.6,29.77,ENE,75,1.0,1.0,9,0.00,,,0.00,Wunderground v.1.15,2013-06-09 22:20:00,
2013-06-09 16:21:00,90.3,26.3,29.77,ENE,74,0.0,1.0,10,0.00,,,0.00,Wunderground v.1.15,2013-06-09 22:21:00,
2013-06-09 16:23:00,90.5,23.9,29.77,ENE,69,0.0,1.0,9,0.00,,,0.00,Wunderground v.1.15,2013-06-09 22:23:00,
2013-06-09 16:26:00,90.7,26.6,29.77,ENE,60,0.0,1.0,10,0.00,,,0.00,Wunderground v.1.15,2013-06-09 22:26:00,
2013-06-09 16:27:00,91.0,24.3,29.77,NNE,30,0.0,2.0,9,0.00,,,0.00,Wunderground v.1.15,2013-06-09 22:27:00,
2013-06-09 16:30:00,91.0,24.3,29.77,NNE,24,1.0,3.0,9,0.00,,,0.00,Wunderground v.1.15,2013-06-09 22:30:00,
2013-06-09 16:32:00,90.7,21.3,29.75,NE,34,2.0,3.0,8,0.00,,,0.00,Wunderground v.1.15,2013-06-09 22:32:00,
2013-06-09 16:35:00,90.5,23.9,29.75,NNE,25,2.0,3.0,9,0.00,,,0.00,Wunderground v.1.15,2013-06-09 22:35:00,
2013-06-09 16:38:00,90.7,24.1,29.75,NNE,16,2.0,3.0,9,0.00,,,0.00,Wunderground v.1.15,2013-06-09 22:38:00,
2013-06-09 16:39:00,90.7,21.3,29.75,North,355,2.0,2.0,8,0.00,,,0.00,Wunderground v.1.15,2013-06-09 22:39:00,
2013-06-09 16:42:00,90.7,21.3,29.75,North,5,1.0,2.0,8,0.00,,,0.00,Wunderground v.1.15,2013-06-09 22:42:00,
2013-06-09 16:44:00,90.7,21.3,29.75,NE,46,1.0,2.0,8,0.00,,,0.00,Wunderground v.1.15,2013-06-09 22:44:00,
2013-06-09 16:48:00,91.2,24.5,29.75,NNW,334,1.0,2.0,9,0.00,,,0.00,Wunderground v.1.15,2013-06-09 22:48:00,
2013-06-09 16:50:00,91.2,21.7,29.75,NW,316,1.0,1.0,8,0.00,,,0.00,Wunderground v.1.15,2013-06-09 22:50:00,
2013-06-09 16:52:00,91.2,21.7,29.75,NNE,19,2.0,4.0,8,0.00,,,0.00,Wunderground v.1.15,2013-06-09 22:52:00,
2013-06-09 16:54:00,91.0,24.3,29.75,NNE,22,2.0,4.0,9,0.00,,,0.00,Wunderground v.1.15,2013-06-09 22:54:00,
2013-06-09 16:58:00,91.0,24.3,29.75,North,5,1.0,4.0,9,0.00,,,0.00,Wunderground v.1.15,2013-06-09 22:58:00,
2013-06-09 17:00:00,91.0,24.3,29.75,NW,311,1.0,1.0,9,0.00,,,0.00,Wunderground v.1.15,2013-06-09 23:00:00,
2013-06-09 17:02:00,91.2,24.5,29.75,NNE,13,1.0,1.0,9,0.00,,,0.00,Wunderground v.1.15,2013-06-09 23:02:00,
2013-06-09 17:06:00,91.0,24.3,29.75,NE,51,1.0,1.0,9,0.00,,,0.00,Wunderground v.1.15,2013-06-09 23:06:00,
2013-06-09 17:10:00,90.7,24.1,29.75,NE,56,1.0,1.0,9,0.00,,,0.00,Wunderground v.1.15,2013-06-09 23:10:00,
2013-06-09 17:14:00,91.2,24.5,29.75,NNE,25,1.0,1.0,9,0.00,,,0.00,Wunderground v.1.15,2013-06-09 23:14:00,
2013-06-09 17:16:00,91.4,21.8,29.75,NNW,342,0.0,1.0,8,0.00,,,0.00,Wunderground v.1.15,2013-06-09 23:16:00,
2013-06-09 17:20:00,91.8,22.1,29.75,NNW,342,0.0,0.0,8,0.00,,,0.00,Wunderground v.1.15,2013-06-09 23:20:00,
2013-06-09 17:26:00,92.1,22.3,29.75,NNE,23,0.0,1.0,8,0.00,,,0.00,Wunderground v.1.15,2013-06-09 23:26:00,
2013-06-09 17:28:00,91.8,24.9,29.75,NNW,333,1.0,1.0,9,0.00,,,0.00,Wunderground v.1.15,2013-06-09 23:28:00,
2013-06-09 17:30:00,91.4,24.6,29.75,North,355,1.0,3.0,9,0.00,,,0.00,Wunderground v.1.15,2013-06-09 23:30:00,
2013-06-09 17:34:00,91.2,24.5,29.74,NNW,333,1.0,4.0,9,0.00,,,0.00,Wunderground v.1.15,2013-06-09 23:34:00,
2013-06-09 17:36:00,91.2,24.5,29.74,WNW,291,2.0,4.0,9,0.00,,,0.00,Wunderground v.1.15,2013-06-09 23:36:00,
2013-06-09 17:38:00,91.0,21.5,29.74,NNW,338,2.0,5.0,8,0.00,,,0.00,Wunderground v.1.15,2013-06-09 23:38:00,
2013-06-09 17:42:00,90.7,24.1,29.74,NW,307,1.0,2.0,9,0.00,,,0.00,Wunderground v.1.15,2013-06-09 23:42:00,
2013-06-09 17:44:00,91.0,21.5,29.74,NW,307,1.0,2.0,8,0.00,,,0.00,Wunderground v.1.15,2013-06-09 23:44:00,
2013-06-09 17:48:00,91.0,24.3,29.74,NW,307,0.0,2.0,9,0.00,,,0.00,Wunderground v.1.15,2013-06-09 23:48:00,
2013-06-09 17:50:00,91.2,24.5,29.74,NW,310,0.0,0.0,9,0.00,,,0.00,Wunderground v.1.15,2013-06-09 23:50:00,
2013-06-09 17:54:00,91.4,27.2,29.74,WNW,300,1.0,2.0,10,0.00,,,0.00,Wunderground v.1.15,2013-06-09 23:54:00,
2013-06-09 17:56:00,91.4,27.2,29.74,WNW,300,1.0,2.0,10,0.00,,,0.00,Wunderground v.1.15,2013-06-09 23:56:00,
2013-06-09 18:00:00,91.4,24.6,29.74,NNE,13,1.0,5.0,9,0.00,,,0.00,Wunderground v.1.15,2013-06-10 00:00:00,
2013-06-09 18:02:00,91.2,24.5,29.74,NNE,22,1.0,5.0,9,0.00,,,0.00,Wunderground v.1.15,2013-06-10 00:02:00,
2013-06-09 18:06:00,90.7,24.1,29.74,NNW,337,1.0,5.0,9,0.00,,,0.00,Wunderground v.1.15,2013-06-10 00:06:00,
2013-06-09 18:08:00,90.5,26.5,29.74,NNW,337,1.0,5.0,10,0.00,,,0.00,Wunderground v.1.15,2013-06-10 00:08:00,
2013-06-09 18:10:00,90.5,23.9,29.74,NE,34,2.0,2.0,9,0.00,,,0.00,Wunderground v.1.15,2013-06-10 00:10:00,
2013-06-09 18:12:00,90.3,26.3,29.74,NW,305,1.0,5.0,10,0.00,,,0.00,Wunderground v.1.15,2013-06-10 00:12:00,
2013-06-09 18:14:00,90.1,26.2,29.74,NNW,342,2.0,6.0,10,0.00,,,0.00,Wunderground v.1.15,2013-06-10 00:14:00,
2013-06-09 18:16:00,90.1,26.2,29.72,NNW,338,2.0,6.0,10,0.00,,,0.00,Wunderground v.1.15,2013-06-10 00:16:00,
2013-06-09 18:18:00,89.9,28.3,29.72,NNW,339,2.0,6.0,11,0.00,,,0.00,Wunderground v.1.15,2013-06-10 00:18:00,
2013-06-09 18:20:00,89.9,26.0,29.72,NNW,338,1.0,1.0,10,0.00,,,0.00,Wunderground v.1.15,2013-06-10 00:20:00,
2013-06-09 18:22:00,89.9,28.3,29.72,NNW,338,1.0,1.0,11,0.00,,,0.00,Wunderground v.1.15,2013-06-10 00:22:00,
2013-06-09 18:24:00,89.9,26.0,29.72,North,349,1.0,1.0,10,0.00,,,0.00,Wunderground v.1.15,2013-06-10 00:24:00,
2013-06-09 18:26:00,89.7,25.9,29.72,NW,319,1.0,4.0,10,0.00,,,0.00,Wunderground v.1.15,2013-06-10 00:26:00,
2013-06-09 18:30:00,89.5,25.7,29.72,NW,319,1.0,1.0,10,0.00,,,0.00,Wunderground v.1.15,2013-06-10 00:30:00,
2013-06-09 18:32:00,89.5,28.0,29.72,NW,319,1.0,1.0,11,0.00,,,0.00,Wunderground v.1.15,2013-06-10 00:32:00,
2013-06-09 18:34:00,89.5,28.0,29.72,NW,319,1.0,1.0,11,0.00,,,0.00,Wunderground v.1.15,2013-06-10 00:34:00,
2013-06-09 18:38:00,89.3,27.9,29.72,NW,319,1.0,1.0,11,0.00,,,0.00,Wunderground v.1.15,2013-06-10 00:38:00,
2013-06-09 18:40:00,89.3,27.9,29.72,NW,320,1.0,1.0,11,0.00,,,0.00,Wunderground v.1.15,2013-06-10 00:40:00,
2013-06-09 18:42:00,89.3,27.9,29.72,North,5,1.0,1.0,11,0.00,,,0.00,Wunderground v.1.15,2013-06-10 00:42:00,
2013-06-09 18:46:00,89.3,27.9,29.72,NNW,328,1.0,3.0,11,0.00,,,0.00,Wunderground v.1.15,2013-06-10 00:46:00,
2013-06-09 18:48:00,89.3,27.9,29.72,NNW,342,1.0,3.0,11,0.00,,,0.00,Wunderground v.1.15,2013-06-10 00:48:00,
2013-06-09 18:52:00,88.8,29.6,29.72,NNW,330,1.0,1.0,12,0.00,,,0.00,Wunderground v.1.15,2013-06-10 00:52:00,
2013-06-09 18:54:00,88.8,27.5,29.72,NNW,330,1.0,1.0,11,0.00,,,0.00,Wunderground v.1.15,2013-06-10 00:54:00,
2013-06-09 18:56:00,88.8,27.5,29.72,NW,324,1.0,1.0,11,0.00,,,0.00,Wunderground v.1.15,2013-06-10 00:56:00,
2013-06-09 18:58:00,88.8,29.6,29.72,North,32767,1.0,1.0,12,0.00,,,0.00,Wunderground v.1.15,2013-06-10 00:58:00,
2013-06-09 19:02:00,89.0,29.8,29.72,NW,307,1.0,5.0,12,0.00,,,0.00,Wunderground v.1.15,2013-06-10 01:02:00,
2013-06-09 19:04:00,89.0,27.7,29.72,NNW,331,1.0,5.0,11,0.00,,,0.00,Wunderground v.1.15,2013-06-10 01:04:00,
2013-06-09 19:06:00,89.0,27.7,29.72,NNW,329,1.0,5.0,11,0.00,,,0.00,Wunderground v.1.15,2013-06-10 01:06:00,
2013-06-09 19:08:00,89.0,27.7,29.72,NNW,338,1.0,5.0,11,0.00,,,0.00,Wunderground v.1.15,2013-06-10 01:08:00,
2013-06-09 19:14:00,89.0,27.7,29.72,NW,326,1.0,2.0,11,0.00,,,0.00,Wunderground v.1.15,2013-06-10 01:14:00,
2013-06-09 19:15:00,88.8,27.5,29.69,NW,326,1.0,2.0,11,0.00,,,0.00,Wunderground v.1.15,2013-06-10 01:15:00,
2013-06-09 19:17:00,88.8,29.6,29.69,NNW,327,1.0,2.0,12,0.00,,,0.00,Wunderground v.1.15,2013-06-10 01:17:00,
2013-06-09 19:21:00,88.6,29.5,29.69,NW,326,1.0,1.0,12,0.00,,,0.00,Wunderground v.1.15,2013-06-10 01:21:00,
2013-06-09 19:23:00,88.6,27.3,29.69,NW,326,0.0,1.0,11,0.00,,,0.00,Wunderground v.1.15,2013-06-10 01:23:00,
2013-06-09 19:32:00,88.6,29.5,29.68,NW,326,0.0,0.0,12,0.00,,,0.00,Wunderground v.1.15,2013-06-10 01:32:00,
2013-06-09 19:37:00,88.4,29.3,29.68,NW,326,0.0,0.0,12,0.00,,,0.00,Wunderground v.1.15,2013-06-10 01:37:00,
2013-06-09 19:39:00,88.4,29.3,29.68,NW,326,0.0,0.0,12,0.00,,,0.00,Wunderground v.1.15,2013-06-10 01:39:00,
2013-06-09 19:44:00,88.4,29.3,29.68,NW,326,0.0,0.0,12,0.00,,,0.00,Wunderground v.1.15,2013-06-10 01:44:00,
2013-06-09 19:45:00,88.2,29.2,29.69,NW,326,0.0,0.0,12,0.00,,,0.00,Wunderground v.1.15,2013-06-10 01:45:00,
2013-06-09 19:49:00,87.8,30.8,29.69,NW,326,0.0,0.0,13,0.00,,,0.00,Wunderground v.1.15,2013-06-10 01:49:00,
2013-06-09 19:51:00,87.6,30.7,29.69,NW,326,0.0,0.0,13,0.00,,,0.00,Wunderground v.1.15,2013-06-10 01:51:00,
2013-06-09 19:53:00,87.4,30.5,29.69,NW,326,0.0,0.0,13,0.00,,,0.00,Wunderground v.1.15,2013-06-10 01:53:00,
2013-06-09 19:57:00,86.7,30.0,29.69,NW,326,0.0,0.0,13,0.00,,,0.00,Wunderground v.1.15,2013-06-10 01:57:00,
2013-06-09 20:03:00,86.1,31.3,29.70,NW,326,0.0,0.0,14,0.00,,,0.00,Wunderground v.1.15,2013-06-10 02:03:00,
2013-06-09 20:05:00,85.9,31.2,29.70,NW,326,0.0,0.0,14,0.00,,,0.00,Wunderground v.1.15,2013-06-10 02:05:00,
2013-06-09 20:07:00,85.7,31.0,29.70,NW,326,0.0,0.0,14,0.00,,,0.00,Wunderground v.1.15,2013-06-10 02:07:00,
2013-06-09 20:11:00,85.3,32.4,29.70,North,5,0.0,0.0,15,0.00,,,0.00,Wunderground v.1.15,2013-06-10 02:11:00,
2013-06-09 20:13:00,85.1,32.2,29.70,North,5,0.0,0.0,15,0.00,,,0.00,Wunderground v.1.15,2013-06-10 02:13:00,
2013-06-09 20:15:00,85.1,33.8,29.67,North,5,0.0,0.0,16,0.00,,,0.00,Wunderground v.1.15,2013-06-10 02:15:00,
2013-06-09 20:18:00,84.9,33.7,29.67,North,5,0.0,0.0,16,0.00,,,0.00,Wunderground v.1.15,2013-06-10 02:18:00,
2013-06-09 20:19:00,84.9,33.7,29.67,North,5,0.0,0.0,16,0.00,,,0.00,Wunderground v.1.15,2013-06-10 02:19:00,
2013-06-09 20:24:00,84.3,33.2,29.67,North,5,0.0,0.0,16,0.00,,,0.00,Wunderground v.1.15,2013-06-10 02:24:00,
2013-06-09 20:26:00,84.0,34.5,29.67,North,5,0.0,0.0,17,0.00,,,0.00,Wunderground v.1.15,2013-06-10 02:26:00,
2013-06-09 20:30:00,83.2,35.3,29.67,North,5,0.0,0.0,18,0.00,,,0.00,Wunderground v.1.15,2013-06-10 02:30:00,
2013-06-09 20:31:00,83.0,35.1,29.68,North,5,0.0,0.0,18,0.00,,,0.00,Wunderground v.1.15,2013-06-10 02:31:00,
2013-06-09 20:33:00,82.6,36.1,29.68,North,5,0.0,0.0,19,0.00,,,0.00,Wunderground v.1.15,2013-06-10 02:33:00,
2013-06-09 20:35:00,82.4,36.0,29.68,North,5,0.0,0.0,19,0.00,,,0.00,Wunderground v.1.15,2013-06-10 02:35:00,
2013-06-09 20:38:00,82.0,35.7,29.68,North,5,0.0,0.0,19,0.00,,,0.00,Wunderground v.1.15,2013-06-10 02:38:00,
2013-06-09 20:39:00,81.6,36.6,29.68,North,5,0.0,0.0,20,0.00,,,0.00,Wunderground v.1.15,2013-06-10 02:39:00,
2013-06-09 20:45:00,80.5,38.1,29.68,North,5,0.0,0.0,22,0.00,,,0.00,Wunderground v.1.15,2013-06-10 02:45:00,
2013-06-09 20:48:00,79.9,37.6,29.69,North,5,0.0,0.0,22,0.00,,,0.00,Wunderground v.1.15,2013-06-10 02:48:00,
2013-06-09 20:52:00,79.2,37.1,29.69,North,5,0.0,0.0,22,0.00,,,0.00,Wunderground v.1.15,2013-06-10 02:52:00,
2013-06-09 20:58:00,78.1,39.4,29.69,North,5,0.0,0.0,25,0.00,,,0.00,Wunderground v.1.15,2013-06-10 02:58:00,
2013-06-09 21:00:00,77.7,38.0,29.69,North,5,0.0,0.0,24,0.00,,,0.00,Wunderground v.1.15,2013-06-10 03:00:00,
2013-06-09 21:04:00,77.2,35.4,29.71,North,5,0.0,0.0,22,0.00,,,0.00,Wunderground v.1.15,2013-06-10 03:04:00,
2013-06-09 21:06:00,77.0,39.5,29.71,North,5,0.0,0.0,26,0.00,,,0.00,Wunderground v.1.15,2013-06-10 03:06:00,
2013-06-09 21:10:00,76.5,39.0,29.71,North,5,0.0,0.0,26,0.00,,,0.00,Wunderground v.1.15,2013-06-10 03:10:00,
2013-06-09 21:12:00,76.3,39.8,29.71,North,5,0.0,0.0,27,0.00,,,0.00,Wunderground v.1.15,2013-06-10 03:12:00,
2013-06-09 21:18:00,75.6,39.2,29.69,North,5,0.0,0.0,27,0.00,,,0.00,Wunderground v.1.15,2013-06-10 03:18:00,
2013-06-09 21:20:00,75.3,38.0,29.69,North,5,0.0,0.0,26,0.00,,,0.00,Wunderground v.1.15,2013-06-10 03:20:00,
2013-06-09 21:22:00,74.9,37.7,29.69,North,5,0.0,0.0,26,0.00,,,0.00,Wunderground v.1.15,2013-06-10 03:22:00,
2013-06-09 21:24:00,74.7,37.5,29.69,North,5,0.0,0.0,26,0.00,,,0.00,Wunderground v.1.15,2013-06-10 03:24:00,
2013-06-09 21:26:00,74.6,36.4,29.69,NNE,23,0.0,0.0,25,0.00,,,0.00,Wunderground v.1.15,2013-06-10 03:26:00,
2013-06-09 21:28:00,74.6,35.4,29.69,NNE,23,0.0,0.0,24,0.00,,,0.00,Wunderground v.1.15,2013-06-10 03:28:00,
2013-06-09 21:30:00,74.4,36.3,29.69,NNE,23,0.0,0.0,25,0.00,,,0.00,Wunderground v.1.15,2013-06-10 03:30:00,
2013-06-09 21:31:00,74.2,37.1,29.72,NNE,23,0.0,0.0,26,0.00,,,0.00,Wunderground v.1.15,2013-06-10 03:31:00,
2013-06-09 21:33:00,73.9,37.8,29.72,NNE,23,0.0,0.0,27,0.00,,,0.00,Wunderground v.1.15,2013-06-10 03:33:00,
2013-06-09 21:35:00,73.3,38.2,29.72,NNE,23,0.0,0.0,28,0.00,,,0.00,Wunderground v.1.15,2013-06-10 03:35:00,
2013-06-09 21:37:00,72.8,37.8,29.72,NNE,23,0.0,0.0,28,0.00,,,0.00,Wunderground v.1.15,2013-06-10 03:37:00,
2013-06-09 21:42:00,72.1,36.3,29.72,East,98,0.0,0.0,27,0.00,,,0.00,Wunderground v.1.15,2013-06-10 03:42:00,
2013-06-09 21:44:00,71.8,36.0,29.72,East,99,0.0,0.0,27,0.00,,,0.00,Wunderground v.1.15,2013-06-10 03:44:00,
2013-06-09 21:48:00,71.3,35.6,29.74,East,99,0.0,0.0,27,0.00,,,0.00,Wunderground v.1.15,2013-06-10 03:48:00,
2013-06-09 21:50:00,71.1,34.5,29.74,East,99,0.0,0.0,26,0.00,,,0.00,Wunderground v.1.15,2013-06-10 03:50:00,
2013-06-09 21:52:00,70.9,35.2,29.74,East,99,0.0,0.0,27,0.00,,,0.00,Wunderground v.1.15,2013-06-10 03:52:00,
2013-06-09 21:54:00,70.8,34.2,29.74,East,98,0.0,0.0,26,0.00,,,0.00,Wunderground v.1.15,2013-06-10 03:54:00,
2013-06-09 21:58:00,70.8,33.2,29.74,East,100,0.0,0.0,25,0.00,,,0.00,Wunderground v.1.15,2013-06-10 03:58:00,
2013-06-09 22:02:00,71.3,32.6,29.74,ESE,104,0.0,0.0,24,0.00,,,0.00,Wunderground v.1.15,2013-06-10 04:02:00,
2013-06-09 22:04:00,71.5,32.8,29.74,ESE,104,0.0,0.0,24,0.00,,,0.00,Wunderground v.1.15,2013-06-10 04:04:00,
2013-06-09 22:06:00,71.6,32.9,29.74,ESE,105,1.0,3.0,24,0.00,,,0.00,Wunderground v.1.15,2013-06-10 04:06:00,
2013-06-09 22:08:00,71.6,32.9,29.74,ESE,105,1.0,3.0,24,0.00,,,0.00,Wunderground v.1.15,2013-06-10 04:08:00,
2013-06-09 22:12:00,71.8,32.0,29.74,ESE,105,1.0,1.0,23,0.00,,,0.00,Wunderground v.1.15,2013-06-10 04:12:00,
2013-06-09 22:14:00,71.8,33.0,29.74,ESE,103,1.0,1.0,24,0.00,,,0.00,Wunderground v.1.15,2013-06-10 04:14:00,
2013-06-09 22:16:00,71.8,32.0,29.74,ESE,103,0.0,1.0,23,0.00,,,0.00,Wunderground v.1.15,2013-06-10 04:16:00,
2013-06-09 22:20:00,72.0,32.1,29.74,ESE,106,1.0,2.0,23,0.00,,,0.00,Wunderground v.1.15,2013-06-10 04:20:00,
2013-06-09 22:22:00,72.0,31.0,29.74,ESE,106,1.0,1.0,22,0.00,,,0.00,Wunderground v.1.15,2013-06-10 04:22:00,
2013-06-09 22:24:00,72.0,32.1,29.74,ESE,111,1.0,1.0,23,0.00,,,0.00,Wunderground v.1.15,2013-06-10 04:24:00,
2013-06-09 22:28:00,71.8,32.0,29.74,ESE,111,0.0,1.0,23,0.00,,,0.00,Wunderground v.1.15,2013-06-10 04:28:00,
2013-06-09 22:30:00,71.5,31.7,29.74,ESE,111,0.0,1.0,23,0.00,,,0.00,Wunderground v.1.15,2013-06-10 04:30:00,
2013-06-09 22:31:00,71.5,31.7,29.74,ESE,111,0.0,0.0,23,0.00,,,0.00,Wunderground v.1.15,2013-06-10 04:31:00,
2013-06-09 22:33:00,71.1,32.5,29.74,ESE,111,0.0,0.0,24,0.00,,,0.00,Wunderground v.1.15,2013-06-10 04:33:00,
2013-06-09 22:40:00,70.4,31.9,29.74,ESE,111,0.0,1.0,24,0.00,,,0.00,Wunderground v.1.15,2013-06-10 04:40:00,
2013-06-09 22:42:00,70.3,31.8,29.74,ESE,111,0.0,0.0,24,0.00,,,0.00,Wunderground v.1.15,2013-06-10 04:42:00,
2013-06-09 22:44:00,70.1,31.6,29.74,ESE,111,0.0,0.0,24,0.00,,,0.00,Wunderground v.1.15,2013-06-10 04:44:00,
2013-06-09 22:46:00,69.9,32.5,29.75,ESE,111,0.0,0.0,25,0.00,,,0.00,Wunderground v.1.15,2013-06-10 04:46:00,
2013-06-09 22:50:00,69.6,32.2,29.75,ESE,111,0.0,0.0,25,0.00,,,0.00,Wunderground v.1.15,2013-06-10 04:50:00,
2013-06-09 22:54:00,69.3,32.9,29.75,ESE,111,0.0,0.0,26,0.00,,,0.00,Wunderground v.1.15,2013-06-10 04:54:00,
2013-06-09 22:56:00,69.1,32.7,29.75,ESE,111,0.0,0.0,26,0.00,,,0.00,Wunderground v.1.15,2013-06-10 04:56:00,
2013-06-09 22:58:00,68.9,33.5,29.75,ESE,111,0.0,0.0,27,0.00,,,0.00,Wunderground v.1.15,2013-06-10 04:58:00,
2013-06-09 23:00:00,68.8,32.5,29.75,ESE,111,0.0,0.0,26,0.00,,,0.00,Wunderground v.1.15,2013-06-10 05:00:00,
2013-06-09 23:02:00,68.9,32.6,29.75,ESE,111,0.0,0.0,26,0.00,,,0.00,Wunderground v.1.15,2013-06-10 05:02:00,
2013-06-09 23:04:00,69.1,31.8,29.75,East,98,1.0,1.0,25,0.00,,,0.00,Wunderground v.1.15,2013-06-10 05:04:00,
2013-06-09 23:08:00,69.8,31.4,29.75,ESE,113,1.0,1.0,24,0.00,,,0.00,Wunderground v.1.15,2013-06-10 05:08:00,
2013-06-09 23:12:00,70.1,31.6,29.75,SE,144,1.0,2.0,24,0.00,,,0.00,Wunderground v.1.15,2013-06-10 05:12:00,
2013-06-09 23:14:00,70.1,31.6,29.75,SE,144,1.0,2.0,24,0.00,,,0.00,Wunderground v.1.15,2013-06-10 05:14:00,
2013-06-09 23:16:00,70.3,30.7,29.74,ESE,120,0.0,11.0,23,0.00,,,0.00,Wunderground v.1.15,2013-06-10 05:16:00,
2013-06-09 23:18:00,70.3,31.8,29.74,SE,137,1.0,11.0,24,0.00,,,0.00,Wunderground v.1.15,2013-06-10 05:18:00,
2013-06-09 23:24:00,70.3,30.7,29.74,SE,140,1.0,1.0,23,0.00,,,0.00,Wunderground v.1.15,2013-06-10 05:24:00,
2013-06-09 23:26:00,70.3,30.7,29.74,SE,145,1.0,1.0,23,0.00,,,0.00,Wunderground v.1.15,2013-06-10 05:26:00,
2013-06-09 23:30:00,70.3,30.7,29.74,ESE,106,1.0,1.0,23,0.00,,,0.00,Wunderground v.1.15,2013-06-10 05:30:00,
2013-06-09 23:31:00,70.3,30.7,29.74,ESE,112,1.0,3.0,23,0.00,,,0.00,Wunderground v.1.15,2013-06-10 05:31:00,
2013-06-09 23:33:00,70.1,30.6,29.74,ESE,119,1.0,3.0,23,0.00,,,0.00,Wunderground v.1.15,2013-06-10 05:33:00,
2013-06-09 23:37:00,69.9,30.4,29.74,SE,140,1.0,3.0,23,0.00,,,0.00,Wunderground v.1.15,2013-06-10 05:37:00,
2013-06-09 23:41:00,69.8,31.4,29.74,ESE,112,1.0,1.0,24,0.00,,,0.00,Wunderground v.1.15,2013-06-10 05:41:00,
2013-06-09 23:43:00,69.6,30.1,29.74,ESE,121,1.0,1.0,23,0.00,,,0.00,Wunderground v.1.15,2013-06-10 05:43:00,
2013-06-09 23:47:00,69.6,31.2,29.74,SSE,153,1.0,2.0,24,0.00,,,0.00,Wunderground v.1.15,2013-06-10 05:47:00,
2013-06-09 23:50:00,69.8,30.3,29.74,South,172,2.0,2.0,23,0.00,,,0.00,Wunderground v.1.15,2013-06-10 05:50:00,
2013-06-09 23:52:00,69.6,31.2,29.74,ESE,123,1.0,2.0,24,0.00,,,0.00,Wunderground v.1.15,2013-06-10 05:52:00,
2013-06-09 23:54:00,69.6,30.1,29.74,SE,134,2.0,2.0,23,0.00,,,0.00,Wunderground v.1.15,2013-06-10 05:54:00,